Miscellaneous Local Product
Issued by NWS Hastings, NE

Home | Current Version | Previous Version | Graphics & Text | Print | Product List | Glossary On
Versions: 1 2 3 4 5 6 7 8 9 10 11 12 13 14 15 16 17 18 19 20 21 22 23 24 25 26 27 28 29 30 31 32 33 34 35 36 37 38 39 40 41 42 43 44 45 46 47 48 49 50
000
AXUS43 KGID 231302
MISGRI

GID CWA HOURLY WEATHER ROUNDUP
NATIONAL WEATHER SERVICE HASTINGS NE
800 AM CDT SAT JUL 23 2016

NOTE: "FAIR" INDICATES FEW OR NO CLOUDS BELOW 12,000 FEET WITH NO
SIGNIFICANT WEATHER AND/OR OBSTRUCTIONS TO VISIBILITY.

...SOUTH CENTRAL NEBRASKA...

CITY           SKY/WX    TMP DP  RH WIND       PRES   REMARKS
GRAND ISLAND   CLOUDY    74  69  85 S7        29.86R
HASTINGS       CLOUDY    75  68  78 S15G22    29.85F
KEARNEY        CLOUDY    77  64  65 SW14G21   29.84R
ORD            CLOUDY    75  66  73 E6        29.85R
YORK           CLOUDY    75  72  88 CALM      29.87S
AURORA         MOSUNNY   75  71  86 SE9       29.86S
LEXINGTON      PTSUNNY   76  64  65 S15G22    29.85R
HOLDREGE       CLOUDY    73  65  74 S10       29.87R
HEBRON         PTSUNNY   77  68  73 S9        29.89F

...NEBRASKA PANHANDLE...

CITY           SKY/WX    TMP DP  RH WIND       PRES   REMARKS
CHADRON        SUNNY     67  61  81 W6        29.88R
ALLIANCE       CLOUDY    67  65  93 S7        29.94R
SCOTTSBLUFF    SUNNY     66  61  84 CALM      29.96R
SIDNEY         CLOUDY    72  62  71 SW10      30.03R

...WESTERN AND NORTH CENTRAL NEBRASKA...

CITY           SKY/WX    TMP DP  RH WIND       PRES   REMARKS
VALENTINE      SUNNY     72  64  76 SW12      29.82S
AINSWORTH      MOSUNNY   69  66  89 SE3       29.83S
ONEILL         CLOUDY    73  68  84 S6        29.85R
BROKEN BOW     MOSUNNY   70  68  93 CALM      29.85S
IMPERIAL       CLOUDY    73  64  73 SW5       29.95R
NORTH PLATTE   CLOUDY    73  66  78 SW9       29.90R
MCCOOK         CLOUDY    77  64  64 S12       29.88R

...EASTERN NEBRASKA...

CITY           SKY/WX    TMP DP  RH WIND       PRES   REMARKS
NORFOLK        CLOUDY    73  70  90 SE5       29.86R
SO SIOUX CITY  CLOUDY    79  75  87 S9        29.84R
TEKAMAH        CLOUDY    79  73  82 S9        29.84S
COLUMBUS       CLOUDY    75  66  73 SE6       29.85S
ALBION         CLOUDY    73  69  86 SE3       29.86R
OMAHA EPPLEY   CLOUDY    83  69  62 S10       29.84F
OFFUTT AFB     PTSUNNY   80  70  71 S10       29.85F
MILLARD        CLOUDY    82  71  68 S6        29.85F
LINCOLN        CLOUDY    80  71  74 S12       29.86F
NEBRASKA CITY  LGT RAIN  76  72  86 SW9       29.89F
BEATRICE       CLOUDY    78  68  69 SE8       29.89F
FALLS CITY     CLOUDY    80  73  79 S8        29.92S

...NORTHERN KANSAS...

CITY           SKY/WX    TMP DP  RH WIND       PRES   REMARKS
GOODLAND       CLOUDY    70  65  84 SE9       29.96F
HILL CITY      CLOUDY    74  69  85 SE9       29.90S
NORTON         SUNNY     73  64  73 S7        29.89S
SMITH CENTER   SUNNY     72  70  94 E15       29.88F
BELOIT         SUNNY     75  70  83 S5        29.91S
HAYS           MOSUNNY   75  63  64 E7        29.94F
RUSSELL        MOSUNNY   80  63  55 S8        29.94S
CONCORDIA      CLOUDY    77  68  73 S12       29.91F
SALINA         CLOUDY    80  67  64 S7        29.95S
TOPEKA           N/A     82  71  69 S6        29.96R



USA.gov is the U.S. government's official web portal to all federal, state and local government web resources and services.